Time,TemperatureF,DewpointF,PressureIn,WindDirection,WindDirectionDegrees,WindSpeedMPH,WindSpeedGustMPH,Humidity,HourlyPrecipIn,Conditions,Clouds,dailyrainin,SoftwareType,DateUTC
2013-07-18 00:04:00,78.7,72.0,30.12,SE,127,0.0,0.0,79,0.00,,,0.00,weatherlink.com 1.10,2013-07-18 05:04:00,
2013-07-18 00:18:00,78.5,72.0,30.12,SE,127,0.0,0.0,79,0.00,,,0.00,weatherlink.com 1.10,2013-07-18 05:18:00,
2013-07-18 00:34:00,78.1,71.0,30.12,SE,127,0.0,0.0,79,0.00,,,0.00,weatherlink.com 1.10,2013-07-18 05:34:00,
2013-07-18 00:49:00,78.0,71.0,30.12,SE,127,0.0,0.0,80,0.00,,,0.00,weatherlink.com 1.10,2013-07-18 05:49:00,
2013-07-18 01:03:00,77.6,71.0,30.12,SE,127,0.0,0.0,80,0.00,,,0.00,weatherlink.com 1.10,2013-07-18 06:03:00,
2013-07-18 01:19:00,77.4,71.0,30.12,SE,127,0.0,0.0,81,0.00,,,0.00,weatherlink.com 1.10,2013-07-18 06:19:00,
2013-07-18 01:34:00,77.5,71.0,30.12,SE,127,0.0,0.0,81,0.00,,,0.00,weatherlink.com 1.10,2013-07-18 06:34:00,
2013-07-18 01:53:00,77.2,71.0,30.12,SE,127,0.0,0.0,82,0.00,,,0.00,weatherlink.com 1.10,2013-07-18 06:53:00,
2013-07-18 02:06:00,76.7,71.0,30.11,SE,127,0.0,0.0,83,0.00,,,0.00,weatherlink.com 1.10,2013-07-18 07:06:00,
2013-07-18 02:22:00,76.4,71.0,30.11,SE,127,0.0,0.0,83,0.00,,,0.00,weatherlink.com 1.10,2013-07-18 07:22:00,
2013-07-18 02:34:00,76.3,71.0,30.11,SE,127,0.0,0.0,84,0.00,,,0.00,weatherlink.com 1.10,2013-07-18 07:34:00,
2013-07-18 02:50:00,76.1,71.0,30.11,SE,127,0.0,0.0,84,0.00,,,0.00,weatherlink.com 1.10,2013-07-18 07:50:00,
2013-07-18 03:05:00,75.6,71.0,30.11,SE,127,0.0,0.0,84,0.00,,,0.00,weatherlink.com 1.10,2013-07-18 08:05:00,
2013-07-18 03:19:00,75.4,71.0,30.10,SE,127,0.0,0.0,85,0.00,,,0.00,weatherlink.com 1.10,2013-07-18 08:19:00,
2013-07-18 03:36:00,75.3,71.0,30.10,SE,127,0.0,0.0,85,0.00,,,0.00,weatherlink.com 1.10,2013-07-18 08:36:00,
2013-07-18 03:57:00,75.1,71.0,30.09,SE,127,0.0,0.0,86,0.00,,,0.00,weatherlink.com 1.10,2013-07-18 08:57:00,
2013-07-18 04:04:00,74.9,71.0,30.09,SE,127,0.0,0.0,86,0.00,,,0.00,weatherlink.com 1.10,2013-07-18 09:04:00,
2013-07-18 04:20:00,74.6,70.0,30.09,SE,146,0.0,0.0,86,0.00,,,0.00,weatherlink.com 1.10,2013-07-18 09:20:00,
2013-07-18 04:34:00,74.6,71.0,30.09,SE,146,0.0,0.0,87,0.00,,,0.00,weatherlink.com 1.10,2013-07-18 09:34:00,
2013-07-18 04:49:00,74.4,70.0,30.09,SE,146,0.0,0.0,87,0.00,,,0.00,weatherlink.com 1.10,2013-07-18 09:49:00,
2013-07-18 05:04:00,74.2,70.0,30.09,SE,146,0.0,0.0,87,0.00,,,0.00,weatherlink.com 1.10,2013-07-18 10:04:00,
2013-07-18 05:19:00,73.9,70.0,30.08,SE,146,0.0,0.0,88,0.00,,,0.00,weatherlink.com 1.10,2013-07-18 10:19:00,
2013-07-18 05:34:00,73.5,70.0,30.09,SE,146,0.0,0.0,88,0.00,,,0.00,weatherlink.com 1.10,2013-07-18 10:34:00,
2013-07-18 05:50:00,73.1,69.0,30.08,SE,146,0.0,0.0,88,0.00,,,0.00,weatherlink.com 1.10,2013-07-18 10:50:00,
2013-07-18 06:05:00,73.2,70.0,30.09,SE,146,0.0,0.0,88,0.00,,,0.00,weatherlink.com 1.10,2013-07-18 11:05:00,
2013-07-18 06:35:00,73.1,69.0,30.09,SE,146,0.0,0.0,88,0.00,,,0.00,weatherlink.com 1.10,2013-07-18 11:35:00,
2013-07-18 06:50:00,73.5,70.0,30.09,SE,146,0.0,0.0,87,0.00,,,0.00,weatherlink.com 1.10,2013-07-18 11:50:00,
2013-07-18 07:05:00,74.7,70.0,30.09,SE,129,0.0,0.0,84,0.00,,,0.00,weatherlink.com 1.10,2013-07-18 12:05:00,
2013-07-18 07:20:00,75.5,70.0,30.09,SE,132,0.0,0.0,82,0.00,,,0.00,weatherlink.com 1.10,2013-07-18 12:20:00,
2013-07-18 07:35:00,76.4,70.0,30.09,ESE,113,0.0,0.0,80,0.00,,,0.00,weatherlink.com 1.10,2013-07-18 12:35:00,
2013-07-18 07:50:00,77.5,70.0,30.09,SSE,149,0.0,1.0,77,0.00,,,0.00,weatherlink.com 1.10,2013-07-18 12:50:00,
2013-07-18 08:05:00,78.4,70.0,30.09,ESE,107,0.0,1.0,75,0.00,,,0.00,weatherlink.com 1.10,2013-07-18 13:05:00,
2013-07-18 08:20:00,79.2,71.0,30.09,ESE,113,0.0,0.0,75,0.00,,,0.00,weatherlink.com 1.10,2013-07-18 13:20:00,
2013-07-18 08:35:00,80.1,71.0,30.09,East,89,0.0,0.0,73,0.00,,,0.00,weatherlink.com 1.10,2013-07-18 13:35:00,
2013-07-18 08:50:00,81.8,71.0,30.09,SE,146,0.0,0.0,70,0.00,,,0.00,weatherlink.com 1.10,2013-07-18 13:50:00,
2013-07-18 09:05:00,85.9,72.0,30.09,SE,126,0.0,0.0,64,0.00,,,0.00,weatherlink.com 1.10,2013-07-18 14:05:00,
2013-07-18 09:20:00,87.8,71.0,30.09,ESE,121,0.0,1.0,58,0.00,,,0.00,weatherlink.com 1.10,2013-07-18 14:20:00,
2013-07-18 09:35:00,90.1,72.0,30.08,ESE,115,0.0,1.0,56,0.00,,,0.00,weatherlink.com 1.10,2013-07-18 14:35:00,
2013-07-18 09:51:00,90.4,71.0,30.07,ESE,119,0.0,1.0,53,0.00,,,0.00,weatherlink.com 1.10,2013-07-18 14:51:00,
2013-07-18 10:06:00,91.1,72.0,30.08,NNW,338,0.0,2.0,53,0.00,,,0.00,weatherlink.com 1.10,2013-07-18 15:06:00,
2013-07-18 10:21:00,91.4,71.0,30.08,SE,142,0.0,6.0,51,0.00,,,0.00,weatherlink.com 1.10,2013-07-18 15:21:00,
2013-07-18 10:36:00,92.3,71.0,30.07,ESE,103,0.0,3.0,50,0.00,,,0.00,weatherlink.com 1.10,2013-07-18 15:36:00,
2013-07-18 10:53:00,93.0,71.0,30.07,ESE,112,0.0,4.0,48,0.00,,,0.00,weatherlink.com 1.10,2013-07-18 15:53:00,
2013-07-18 11:06:00,94.1,71.0,30.06,East,90,0.0,2.0,47,0.00,,,0.00,weatherlink.com 1.10,2013-07-18 16:06:00,
2013-07-18 11:21:00,93.7,70.0,30.06,ESE,122,0.0,6.0,46,0.00,,,0.00,weatherlink.com 1.10,2013-07-18 16:21:00,
2013-07-18 11:36:00,94.2,68.0,30.06,ESE,116,2.0,5.0,43,0.00,,,0.00,weatherlink.com 1.10,2013-07-18 16:36:00,
2013-07-18 11:51:00,93.6,69.0,30.05,ESE,113,2.0,6.0,44,0.00,,,0.00,weatherlink.com 1.10,2013-07-18 16:51:00,
2013-07-18 12:06:00,93.9,69.0,30.05,ESE,111,1.0,4.0,44,0.00,,,0.00,weatherlink.com 1.10,2013-07-18 17:06:00,
2013-07-18 12:23:00,95.0,68.0,30.05,East,89,0.0,7.0,42,0.00,,,0.00,weatherlink.com 1.10,2013-07-18 17:23:00,
2013-07-18 12:36:00,94.7,69.0,30.04,SE,131,1.0,5.0,43,0.00,,,0.00,weatherlink.com 1.10,2013-07-18 17:36:00,
2013-07-18 12:51:00,96.1,69.0,30.04,ESE,111,0.0,4.0,42,0.00,,,0.00,weatherlink.com 1.10,2013-07-18 17:51:00,
2013-07-18 13:06:00,94.2,68.0,30.03,SSE,157,5.0,6.0,43,0.00,,,0.00,weatherlink.com 1.10,2013-07-18 18:06:00,
2013-07-18 13:21:00,95.2,68.0,30.03,SE,144,1.0,4.0,41,0.00,,,0.00,weatherlink.com 1.10,2013-07-18 18:21:00,
2013-07-18 13:57:00,96.0,67.0,30.01,South,169,0.0,9.0,39,0.00,,,0.00,weatherlink.com 1.10,2013-07-18 18:57:00,
2013-07-18 14:08:00,96.2,68.0,30.00,SE,126,2.0,5.0,40,0.00,,,0.00,weatherlink.com 1.10,2013-07-18 19:08:00,
2013-07-18 14:36:00,96.9,67.0,29.99,SE,127,2.0,7.0,37,0.00,,,0.00,weatherlink.com 1.10,2013-07-18 19:36:00,
2013-07-18 14:51:00,96.2,66.0,29.98,ESE,121,0.0,10.0,37,0.00,,,0.00,weatherlink.com 1.10,2013-07-18 19:51:00,
2013-07-18 15:52:00,96.8,67.0,29.96,NNW,342,0.0,8.0,38,0.00,,,0.00,weatherlink.com 1.10,2013-07-18 20:52:00,
2013-07-18 16:07:00,96.9,67.0,29.95,North,360,0.0,6.0,37,0.00,,,0.00,weatherlink.com 1.10,2013-07-18 21:07:00,
2013-07-18 16:21:00,95.4,67.0,29.95,WNW,298,0.0,8.0,39,0.00,,,0.00,weatherlink.com 1.10,2013-07-18 21:21:00,
2013-07-18 16:37:00,95.2,65.0,29.94,ESE,117,0.0,6.0,37,0.00,,,0.00,weatherlink.com 1.10,2013-07-18 21:37:00,
2013-07-18 17:05:00,94.9,65.0,29.93,SE,134,2.0,8.0,37,0.00,,,0.00,weatherlink.com 1.10,2013-07-18 22:05:00,
2013-07-18 17:22:00,94.4,67.0,29.93,SE,127,0.0,4.0,41,0.00,,,0.00,weatherlink.com 1.10,2013-07-18 22:22:00,
2013-07-18 17:37:00,94.4,67.0,29.92,NNW,348,0.0,4.0,40,0.00,,,0.00,weatherlink.com 1.10,2013-07-18 22:37:00,
2013-07-18 17:52:00,94.2,66.0,29.92,SE,131,0.0,6.0,39,0.00,,,0.00,weatherlink.com 1.10,2013-07-18 22:52:00,
2013-07-18 18:07:00,93.9,66.0,29.92,SE,128,1.0,8.0,40,0.00,,,0.00,weatherlink.com 1.10,2013-07-18 23:07:00,
2013-07-18 18:22:00,94.3,67.0,29.91,SE,125,1.0,3.0,40,0.00,,,0.00,weatherlink.com 1.10,2013-07-18 23:22:00,
2013-07-18 18:37:00,93.7,66.0,29.91,SE,125,3.0,4.0,40,0.00,,,0.00,weatherlink.com 1.10,2013-07-18 23:37:00,
2013-07-18 18:52:00,93.2,66.0,29.90,East,98,0.0,3.0,41,0.00,,,0.00,weatherlink.com 1.10,2013-07-18 23:52:00,
2013-07-18 19:07:00,93.1,67.0,29.90,SE,134,1.0,4.0,42,0.00,,,0.00,weatherlink.com 1.10,2013-07-19 00:07:00,
2013-07-18 19:22:00,93.4,66.0,29.90,SSW,207,0.0,5.0,41,0.00,,,0.00,weatherlink.com 1.10,2013-07-19 00:22:00,
2013-07-18 19:37:00,92.6,67.0,29.90,SE,134,0.0,1.0,43,0.00,,,0.00,weatherlink.com 1.10,2013-07-19 00:37:00,
2013-07-18 20:03:00,91.2,67.0,29.90,SSE,150,0.0,1.0,45,0.00,,,0.00,weatherlink.com 1.10,2013-07-19 01:03:00,
2013-07-18 20:26:00,90.0,66.0,29.90,SE,132,1.0,1.0,45,0.00,,,0.00,weatherlink.com 1.10,2013-07-19 01:26:00,
2013-07-18 21:01:00,87.2,66.0,29.90,SE,134,0.0,0.0,50,0.00,,,0.00,weatherlink.com 1.10,2013-07-19 02:01:00,
2013-07-18 21:07:00,86.5,67.0,29.90,SE,134,0.0,0.0,52,0.00,,,0.00,weatherlink.com 1.10,2013-07-19 02:07:00,
2013-07-18 21:22:00,85.8,67.0,29.91,SE,134,0.0,0.0,53,0.00,,,0.00,weatherlink.com 1.10,2013-07-19 02:22:00,
2013-07-18 21:37:00,86.1,66.0,29.91,SSE,150,0.0,1.0,52,0.00,,,0.00,weatherlink.com 1.10,2013-07-19 02:37:00,
2013-07-18 21:52:00,85.9,67.0,29.91,South,169,0.0,0.0,53,0.00,,,0.00,weatherlink.com 1.10,2013-07-19 02:52:00,
2013-07-18 22:15:00,85.8,67.0,29.92,SE,136,0.0,2.0,54,0.00,,,0.00,weatherlink.com 1.10,2013-07-19 03:15:00,
2013-07-18 22:23:00,85.6,68.0,29.92,SE,143,0.0,1.0,55,0.00,,,0.00,weatherlink.com 1.10,2013-07-19 03:23:00,
2013-07-18 22:42:00,85.1,68.0,29.92,SSE,158,0.0,2.0,56,0.00,,,0.00,weatherlink.com 1.10,2013-07-19 03:42:00,
2013-07-18 22:54:00,84.8,67.0,29.91,ESE,122,0.0,2.0,56,0.00,,,0.00,weatherlink.com 1.10,2013-07-19 03:54:00,
2013-07-18 23:08:00,84.4,67.0,29.91,ESE,109,0.0,0.0,57,0.00,,,0.00,weatherlink.com 1.10,2013-07-19 04:08:00,
2013-07-18 23:40:00,82.4,67.0,29.91,SE,136,0.0,0.0,60,0.00,,,0.00,weatherlink.com 1.10,2013-07-19 04:40:00,
2013-07-18 23:53:00,82.5,67.0,29.91,SE,135,0.0,0.0,60,0.00,,,0.00,weatherlink.com 1.10,2013-07-19 04:53:00,